NOAA 17 DEB, 48752

Orbit data source: Space-Track

NOAA 17 DEB, 48752 is space debris in SSO originally from a launch on Mon, 24 Jun 2002 UTC launched from the Air Force Western Test Range (AFWTR). Debris objects in space refer to the collection of defunct objects orbiting the Earth. Examples of debris include non-operational satellites, rocket bodies, and fragments generated from explosions, collisions, or faulty payload assembly.

Loading next visibility...
Identifier
48752, 2002-032CM
Orbit
SSO
Country
Flag of USUS
Related business
Manufacturer
Unknown
Mission
Spacecraft
Bus & Motor
Unknown
Mass
Unknown
Launch date (UTC)
2002-06-24 (23 years ago)
Launch vehicle
Unknown
Launch site
Air Force Western Test Range (AFWTR)
Object type
Payload
Rocket body
Debris
Shape & HBR
Unknown shape, 0.1 m
Radar Cross Section
Small (<0.1 m²)

Expand to show TLE details & history
Last TLE update: 2 days ago

TLE from 2 days ago
0 NOAA 17 DEB
1 48752U 02032CM  25347.33715215  .00478493  00000-0  13227-1 0  9992
2 48752  98.6886  30.9316 0004930  89.0756 271.1048 15.35029455250375
Epoch: 2025-12-13T08:05Z
TLE epoch observation values (Epoch: 2025-12-13T08:05:29.945Z)
Latitude
-0.00006°
Longitude
-172.70903°
Altitude
463.84 km
Speed
7.635 km/s
True Right ascension
02h 03m 43s
True Declination
0° 00' 00"
Sunlit
Object was in full shadow at epoch
Visualization orbit readout
Latitude
Unknown
Longitude
Unknown
Altitude
Unknown
Speed
Unknown
Apparent Right ascension
Unknown
Apparent Declination
Unknown
Sunlit
N/A
Visualization observer readout
Local Sidereal Time
17:04:17
Azimuth
Unknown
Elevation
Unknown
Doppler factor
Unknown
Orbital elements
Apogee altitude
461.209 km
Perigee altitude
454.469 km
Semi-major axis
6,835.976 km
Eccentricity
0.00049
Inclination
98.6886°
RAAN
30.9316°
Arg. of periapsis
89.0756°
True anomaly
271.04832°
Mean anomaly
271.1048°
Eccentric anomaly
271.07656°
Mean motion
3.8401 °/min
Orbital period
93.75 mins
BSTAR
0.013227
Loading maneuver chart data...
Computing Atmospheric mass density...
Loading historical data...
Loading historical data...
Loading historical data...
Loading historical data...
Loading historical data...
Loading historical data...
Loading historical data...

Documentation

Showing up to 5 results
|